GLENN Weather Reports


Display with metric or nautical units.
time (UTC)temp
F
wind
direction
speed
MPH
gust
MPH
rain 1hr
in
rain 24hr
in
rain mn
in
humidity
%
barometer
mb
20260904161508 70 340 2.0 7.0 0.00 0.00 0.00 30 1011.7
20260904160016 71 252 4.0 7.0 0.00 0.00 0.00 29 1011.5
20260904154519 73 223 10.0 20.0 0.00 0.00 0.00 24 1011.5
20260904153033 75 215 11.0 16.0 0.00 0.00 0.00 24 1011.2
20260904151508 75 184 3.0 10.0 0.00 0.00 0.00 23 1011.0
20260904150023 74 171 9.0 17.0 0.00 0.00 0.00 20 1010.9
20260904144516 74 142 6.0 12.0 0.00 0.00 0.00 23 1010.6
20260904143023 73 124 10.0 19.0 0.00 0.00 0.00 22 1010.5
20260904141526 73 155 8.0 13.0 0.00 0.00 0.00 23 1010.3
20260904140011 72 146 10.0 17.0 0.00 0.00 0.00 21 1010.0
20260904134521 72 143 12.0 20.0 0.00 0.00 0.00 22 1009.6
20260904133021 72 159 12.0 19.0 0.00 0.00 0.00 21 1009.4
20260904131526 72 128 15.0 21.0 0.00 0.00 0.00 22 1009.2
20260904130044 72 148 15.0 21.0 0.00 0.00 0.00 22 1009.2
20260904124510 72 124 16.0 24.0 0.00 0.00 0.00 22 1008.9
20260904123024 71 144 14.0 24.0 0.00 0.00 0.00 23 1008.4
20260904121524 70 123 11.0 16.0 0.00 0.00 0.00 24 1008.4
20260904120036 72 140 14.0 23.0 0.00 0.00 0.00 22 1008.4
20260904114530 73 148 18.0 30.0 0.00 0.00 0.00 21 1008.1
20260904113018 72 125 20.0 30.0 0.00 0.00 0.00 21 1007.9
20260904111524 71 119 13.0 26.0 0.00 0.00 0.00 23 1007.8
20260904110030 70 90 12.0 20.0 0.00 0.00 0.00 26 1008.1
20260904104530 70 98 12.0 21.0 0.00 0.00 0.00 25 1008.0
20260904103015 70 82 12.0 18.0 0.00 0.00 0.00 25 1008.2
20260904101505 70 100 9.0 16.0 0.00 0.00 0.00 25 1008.3
20260904100004 71 101 11.0 17.0 0.00 0.00 0.00 24 1008.4
20260904094509 70 98 10.0 19.0 0.00 0.00 0.00 24 1008.3
20260904093013 71 120 10.0 17.0 0.00 0.00 0.00 24 1008.5
20260904091522 70 100 9.0 19.0 0.00 0.00 0.00 24 1008.6
20260904090003 70 102 11.0 17.0 0.00 0.00 0.00 25 1008.7
20260904084507 70 88 9.0 18.0 0.00 0.00 0.00 25 1009.0
20260904083011 70 121 11.0 16.0 0.00 0.00 0.00 25 1009.3
20260904081515 70 137 11.0 21.0 0.00 0.00 0.00 24 1009.6
20260904080019 70 144 12.0 21.0 0.00 0.00 0.00 23 1009.8
20260904074502 70 106 10.0 17.0 0.00 0.00 0.00 24 1009.9
20260904073011 70 121 12.0 18.0 0.00 0.00 0.00 25 1010.0
20260904071519 70 134 11.0 17.0 0.00 0.00 0.00 25 1010.1
20260904070020 70 121 12.0 17.0 0.00 0.00 0.00 25 1010.3
20260904064527 69 145 9.0 15.0 0.00 0.00 0.00 26 1010.5
20260904063005 69 98 10.0 16.0 0.00 0.00 0.00 27 1010.6
20260904061527 69 141 12.0 19.0 0.00 0.00 0.00 27 1010.5
20260904060019 68 117 9.0 15.0 0.00 0.00 0.00 28 1010.6
20260904054524 68 129 12.0 16.0 0.00 0.00 0.00 28 1010.7
20260904053028 68 120 8.0 14.0 0.00 0.00 0.00 28 1010.8
20260904051506 69 82 3.0 8.0 0.00 0.00 0.00 27 1011.0
20260904050018 69 104 3.0 11.0 0.00 0.00 0.00 26 1011.0
20260904044535 69 128 5.0 12.0 0.00 0.00 0.00 26 1011.0
20260904043035 69 103 6.0 13.0 0.00 0.00 0.00 27 1011.3
20260904041532 67 123 1.0 3.0 0.00 0.00 0.00 28 1011.6
20260904040011 67 86 1.0 2.0 0.00 0.00 0.00 29 1011.8
20260904034519 67 80 2.0 4.0 0.00 0.00 0.00 30 1012.0
20260904033025 67 96 4.0 7.0 0.00 0.00 0.00 30 1012.2
20260904031529 68 110 3.0 6.0 0.00 0.00 0.00 30 1012.4
20260904030031 68 121 4.0 9.0 0.00 0.00 0.00 29 1012.6
20260904024516 68 139 7.0 11.0 0.00 0.00 0.00 30 1012.6
20260904023020 67 136 7.0 12.0 0.00 0.00 0.00 31 1012.5
20260904021527 67 165 6.0 11.0 0.00 0.00 0.00 31 1012.5
20260904020028 68 166 5.0 13.0 0.00 0.00 0.00 32 1012.4
20260904014534 67 161 5.0 8.0 0.00 0.00 0.00 33 1012.3
20260904013004 67 150 3.0 5.0 0.00 0.00 0.00 34 1012.2
20260904011505 69 215 7.0 12.0 0.00 0.00 0.00 31 1012.1
20260904010004 69 192 4.0 8.0 0.00 0.00 0.00 32 1012.1
20260904004503 71 205 6.0 11.0 0.00 0.00 0.00 30 1012.0
20260904003004 72 197 5.0 9.0 0.00 0.00 0.00 31 1011.8
20260904001505 71 205 5.0 13.0 0.00 0.00 0.00 31 1011.7
20260904000005 71 185 8.0 15.0 0.00 0.00 0.00 30 1011.9
20260903234510 71 223 2.0 9.0 0.00 0.00 0.00 34 1011.7
20260903233002 72 197 2.0 7.0 0.00 0.00 0.00 29 1011.7
20260903231504 70 105 2.0 6.0 0.00 0.00 0.00 32 1011.8
20260903230009 70 54 0.0 3.0 0.00 0.00 0.00 36 1011.8
20260903224513 70 57 0.0 2.0 0.00 0.00 0.00 37 1012.0
20260903223003 70 5 0.0 2.0 0.00 0.00 0.00 38 1012.0
20260903221505 70 352 0.0 7.0 0.00 0.00 0.00 35 1012.0
20260903220007 70 360 3.0 6.0 0.00 0.00 0.00 34 1011.9
20260903214504 71 327 5.0 8.0 0.00 0.00 0.00 32 1012.0
20260903213004 71 254 2.0 5.0 0.00 0.00 0.00 32 1011.8
20260903211508 71 166 2.0 8.0 0.00 0.00 0.00 32 1011.8
20260903210009 72 276 3.0 7.0 0.00 0.00 0.00 33 1011.8
20260903204510 73 213 4.0 5.0 0.00 0.00 0.00 30 1011.8
20260903203015 73 47 1.0 8.0 0.00 0.00 0.00 31 1011.8
20260903201508 73 24 3.0 9.0 0.00 0.00 0.00 29 1011.8
20260903200009 73 56 3.0 9.0 0.00 0.00 0.00 32 1012.2
20260903194517 71 128 2.0 8.0 0.00 0.00 0.00 34 1012.3
20260903193010 72 323 2.0 8.0 0.00 0.00 0.00 31 1012.4
20260903191512 70 318 6.0 11.0 0.00 0.00 0.00 32 1012.7
20260903190012 69 319 2.0 9.0 0.00 0.00 0.00 33 1012.7
20260903184513 69 237 3.0 9.0 0.00 0.00 0.00 31 1013.0
20260903183011 70 360 3.0 8.0 0.00 0.00 0.00 33 1013.0
20260903181512 68 53 2.0 9.0 0.00 0.00 0.00 35 1013.0
20260903180016 66 41 2.0 5.0 0.00 0.00 0.00 35 1013.3
20260903174514 66 341 2.0 3.0 0.00 0.00 0.00 33 1013.2
20260903173019 67 291 1.0 7.0 0.00 0.00 0.00 34 1013.3
20260903171516 67 327 2.0 7.0 0.00 0.00 0.00 33 1013.3
20260903170014 66 336 3.0 6.0 0.00 0.00 0.00 34 1013.2
20260903164517 66 269 3.0 9.0 0.00 0.00 0.00 33 1013.4
20260903163003 66 192 4.0 7.0 0.00 0.00 0.00 33 1013.4